Regional Weather Roundup
Issued by NWS Sioux Falls, SD

Home | Current Version | Previous Version | Graphics & Text | Print | Product List | Glossary On
Versions: 1 2 3 4 5 6 7 8 9 10 11 12 13 14 15 16 17 18 19 20 21 22 23 24 25 26 27 28 29 30 31 32 33 34 35 36 37 38 39 40 41 42 43 44 45 46 47 48 49 50
000
ASUS43 KFSD 280802
RWRFSD

WEATHER ROUNDUP FOR SE SOUTH DAKOTA/SW MINNESOTA/NW IOWA
NATIONAL WEATHER SERVICE SIOUX FALLS SD
200 AM CST FRI NOV 28 2014

NOTE: "FAIR" INDICATES FEW OR NO CLOUDS BELOW 12,000 FEET WITH NO
SIGNIFICANT WEATHER AND OR OBSTRUCTIONS TO VISIBILITY.


SDZ038>040-050-052>070-280900-
SOUTHEAST SOUTH DAKOTA

CITY           SKY/WX    TMP DP  RH WIND       PRES   REMARKS
CHAMBERLAIN    NOT AVBL
HURON          PTCLDY    19  13  77 SE10      29.86F WCI   7
MADISON        FAIR      16  14  93 S9        29.92R WCI   4
MITCHELL       CLEAR     22  16  78 S15       29.87F WCI   9
SIOUX FALLS    CLEAR     17  12  80 S8        29.94F WCI   7
WINNER         FAIR      40  27  59 SW10      29.81F
YANKTON        CLEAR     19  16  86 SE10      29.93F WCI   8
$$

MNZ071-072-080-081-089-090-097-098-280900-
SOUTHWEST MINNESOTA

CITY           SKY/WX    TMP DP  RH WIND       PRES   REMARKS
FAIRMONT       CLOUDY    12   3  67 SE18      30.05F WCI  -5
JACKSON        CLOUDY    12   7  79 SE12      30.02F WCI  -2
LUVERNE        MOCLDY    18  12  79 S9        29.97F WCI   6
MARSHALL       CLOUDY    12   3  67 SE14      30.00F WCI  -3
MONTEVIDEO     CLOUDY     9   3  78 S15       30.06S WCI  -8
PIPESTONE      PTCLDY    16  12  86 S10       29.93F WCI   3
REDWOOD FALLS  CLOUDY    10   3  73 SE20      30.06F WCI  -9
TRACY          CLOUDY    14   8  78 SE9       30.00F WCI   2
WINDOM         CLOUDY    10   7  85 SE12G20   30.01S WCI  -4
WORTHINGTON    CLOUDY    12   9  85 S15G22    29.97F WCI  -4
$$

IAZ001>003-012>014-020>022-031-032-NEZ013-014-SDZ071-280900-
NORTHWEST IOWA

CITY           SKY/WX    TMP DP  RH WIND       PRES   REMARKS
DENISON        CLEAR     25  19  80 S15G26    29.99F WCI  12
ESTHERVILLE    MOCLDY    11   6  81 SE18      30.04F WCI  -7
SIOUX CITY     CLEAR     23  17  78 SE6       30.01F WCI  16
SPENCER        MOCLDY    14   8  77 SE16      30.02F WCI  -2
$$

ABBREVIATIONS USED IN REMARKS
   TC - TEMPERATURE IN CELSIUS
  WCI - WIND CHILL INDEX
   HX - HEAT INDEX
  VSB - VISIBILITY



USA.gov is the U.S. government's official web portal to all federal, state and local government web resources and services.